Regional Weather Roundup
Issued by NWS Upton, NY

Current Version | Previous Version | Text Only | Print | Product List | Glossary On
Versions: 1 2 3 4 5 6 7 8 9 10 11 12 13 14 15 16 17 18 19 20 21 22 23 24 25 26 27 28 29 30 31 32 33 34 35 36 37 38 39 40 41 42 43 44 45 46 47 48 49 50
000 ASUS41 KOKX 270205 RWROKX REGIONAL WEATHER ROUNDUP NATIONAL WEATHER SERVICE NEW YORK NY 900 PM EST MON JAN 26 2015 NOTE: "FAIR" INDICATES FEW OR NO CLOUDS BELOW 12,000 FEET WITH NO SIGNIFICANT WEATHER AND/OR OBSTRUCTIONS TO VISIBILITY. NYZ071-072-176-178-NJZ106-104-270300- NEW YORK CITY METRO AREA CITY SKY/WX TMP DP RH WIND PRES REMARKS CENTRAL PARK LGT SNOW 27 20 75 NE13G29 29.80F WCI 16 LAGUARDIA APRT LGT SNOW 26 22 84 NE22G32 29.78F FOG WCI 12 KENNEDY INTL LGT SNOW 27 23 85 N24G35 29.76F FOG WCI 12 NEWARK/LIBERTY FLURRIES 26 22 84 N25 29.79F WCI 11 BRNX BOT. GARD N/A N/A N/A N/A NE6 29.79F TETERBORO LGTSLEET 27 19 72 N13G25 29.80F BLWGSNOWWCI 16 $$ NYZ177-179-078>081-270300- LONG ISLAND NEW YORK CITY SKY/WX TMP DP RH WIND PRES REMARKS FARMINGDALE LGT SNOW 26 22 84 NE24G37 29.74F VSB 3/4 WCI 11 ISLIP LGT SNOW 26 23 88 NE30G39 29.71F VSB 3/4 WCI 10 SHIRLEY LGT SNOW 27 24 89 N16G26 29.74F VSB 1 WCI 15 WESTHAMPTON SNOW 28 24 85 N28G39 29.72F VSB 1/2 WCI 13 MONTAUK POINT N/A 31 29 92 NE22G33 29.74F WCI 18 $$ NYZ052-065-067-270300- HUDSON VALLEY CITY SKY/WX TMP DP RH WIND PRES REMARKS WHITE PLAINS LGT SNOW 24 18 77 NE16G24 29.78F FOG WCI 11 NEWBURGH NOT AVBL MONTGOMERY CLOUDY 20 15 81 NE17G26 29.86F WCI 5 POUGHKEEPSIE CLOUDY 19 12 74 N13 29.90F WCI 6 ALBANY LGT SNOW 16 8 71 N9 30.01F VSB 1 WCI 4 $$ NJZ001-105-106-008-010-013-015-019>022-104-270300- NEW JERSEY CITY SKY/WX TMP DP RH WIND PRES REMARKS NEWARK/LIBERTY FLURRIES 26 22 84 N25 29.79F WCI 11 TETERBORO LGTSLEET 27 19 72 N13G25 29.80F BLWGSNOWWCI 16 CALDWELL CLOUDY 25 18 74 NE9G21 29.81F WCI 15 MORRISTOWN CLOUDY 25 19 80 NE17G25 29.81F WCI 11 SOMERVILLE CLOUDY 27 19 72 N14G21 29.78F WCI 16 SUSSEX CLOUDY 20 14 77 NE8 29.83F WCI 10 ANDOVER N/A 19 15 84 NE10G20 29.81F WCI 7 TRENTON LGT SNOW 26 21 81 NE17G24 29.75F WCI 13 MILLVILLE CLOUDY 30 25 81 NE21G28 29.67F WCI 17 ATLANTIC CITY CLOUDY 31 28 89 N23G31 29.65S WCI 18 WRIGHTSTOWN CLOUDY 28 24 85 N21 29.70F WCI 15 TOMS RIVER CLOUDY 28 27 93 NE21G28 29.70F WCI 15 BELMAR CLOUDY 28 19 69 NE18G28 29.71F WCI 16 $$ PAZ047>061-062-071-270300- EASTERN PENNSYLVANIA CITY SKY/WX TMP DP RH WIND PRES REMARKS PHILADELPHIA FLURRIES 28 22 78 NE20G32 29.73F WCI 15 ALLENTOWN LGT SNOW 23 17 78 NE17G29 29.79F WCI 9 SCRANTON CLOUDY 23 15 71 NE10 29.79F WCI 12 $$ CTZ002-004>006-009-010-012-RIZ004-006-007-MAZ004-011-015-270300- SOUTHERN NEW ENGLAND IN CT CITY SKY/WX TMP DP RH WIND PRES REMARKS BRADLEY INTL LGT SNOW 21 16 81 N17 29.91F WCI 7 HARTFORD LGT SNOW 21 18 88 N14 29.89F VSB 3/4 WCI 8 DANBURY LGT SNOW 22 16 78 NE10G21 29.83F WCI 11 WTRBRY/OXFORD CLOUDY 19 10 68 NE17G28 29.79F WCI 4 BRIDGEPORT LGT SNOW 24 21 88 N23G32 29.80F FOG WCI 9 MERIDEN LGT SNOW 22 17 81 N20G29 29.85F VSB 1 WCI 7 NEW HAVEN LGT SNOW 23 19 85 N20G28 29.80F FOG WCI 8 CHESTER SNOW 25 23 93 NE14G22 29.79F VSB 1/2 WCI 13 GROTON LGT SNOW 28 25 88 NE21G32 29.77F VSB 3/4 WCI 15 WILLIMANTIC LGT SNOW 24 19 81 NE18G25 29.86F WCI 10 IN RI CITY SKY/WX TMP DP RH WIND PRES REMARKS PROVIDENCE LGT SNOW 28 25 88 NE25G31 29.86F VSB 3/4 WCI 13 BLOCK ISLAND CLOUDY 30 27 86 NE24G43 29.72F VSB 3/4 WCI 16 WESTERLY LGT SNOW 28 26 92 N18G28 29.78F VSB 3/4 WCI 15 IN MA CITY SKY/WX TMP DP RH WIND PRES REMARKS BOSTON LGT SNOW 27 25 92 NE23 29.97F FOG WCI 12 WORCESTER LGT SNOW 15 13 91 NE17G32 29.88F VSB 3/4 WCI -1 WESTFIELD LGT SNOW 19 14 81 N17G26 29.93F WCI 4 PROVINCETOWN CLOUDY 30 27 86 NE30G39 29.90F VSB 1 WCI 15 NANTUCKET LGT SNOW 33 31 92 NE33G49 29.72F VSB 1 WCI 18 $$ ANZ330-335-338-340-345-350-353-355-270300- COASTAL MARINE OBSERVATIONS STATION/POSITION TIME SKY/WX TEMP WIND PRES VSBY WAVE AIR SEA DIR/SP/G HT/PER (UTC) (F) (DEG/KT/KT) (MB) (MI) (FT/S) NY HARB ENTRANCE 0200 31 43 30/ 31/ 37 1005.0 11/ 9 4S FIRE IS 0200 38 N/A 10/ 8 20S FIRE ISLAND 0100 41 1004.5 14/ 9 23SW MTP 0200 N/A 14/ 8 HUDSON CANYON NOT AVBL EXECUTION ROCKS 0200 27 35 30/ 25/ 37 N/A WESTERN LI SOUND 0200 27 40/ 23/ 29 N/A 5/ 5 CENTRAL LI SOUND 0100 28 36 20/ 25/ 31 N/A 4/ 5 EASTERN LI SOUND NOT AVBL ROBBINS REEF 0100 28 30/ 24/ 31 1007.2 $$ >>>>>>>>>>>>>>>>>>>>>>>>>>>> KEY <<<<<<<<<<<<<<<<<<<<<<<<<<< > < > SKY/WX - SKY CONDITION/PRESENT WEATHER < > TMP - TEMPERATURE IN FAHRENHEIT < > DP - DEWPOINT IN FAHRENHEIT < > RH - RELATIVE HUMIDITY IN PERCENT < > WIND - DIRECTION AND SPEED IN MPH < > PRES - MEAN SEA LEVEL PRESSURE IN INCHES OF HG < > WCI - WIND CHILL INDEX < > VSB - VISIBILITY IN MILES < > HX - HEAT INDEX < > TC - TEMPERATURE IN CELSIUS < > VRB - VARIABLE WIND DIRECTION < > < >>>>>>>>>>>>>>>>>>>>>>>>>>>> KEY <<<<<<<<<<<<<<<<<<<<<<<<<<<

USA.gov is the U.S. government's official web portal to all federal, state and local government web resources and services.